Temp_Advection
nan nan nan nan nan nan nan nan nan nan nan nan nan nan nan nan nan nan nan nan nan nan nan nan nan nan nan nan nan nan nan nan nan nan nan nan nan nan nan nan nan nan nan nan nan nan nan
nan 0 0 0 1 0 -0 -0 0 0 0 1 1 0 0 -0 -0 -0 -0 -0 -0 0 0 -0 0 -0 -0 -0 -0 -0 0 -0 -0 -0 0 -0 -0 -0 -1 -0 -0 -0 -1 -0 -0 0 nan
nan 1 1 0 0 1 0 0 0 0 0 0 1 0 0 0 -0 -0 -0 -0 -0 -0 0 0 -0 0 -0 -0 0 0 0 0 -0 0 0 -0 -0 -0 -1 -0 -0 -0 -0 0 0 -0 nan
nan -0 0 1 1 1 0 0 0 0 1 0 1 1 0 0 -0 -0 -0 -0 -0 0 0 0 0 -0 -0 -0 0 -0 -0 0 0 -0 -0 -1 -0 -0 -1 -0 -1 -0 0 -0 0 0 nan
nan -0 -0 0 1 1 0 0 0 0 0 0 1 1 1 0 0 -1 -1 -0 0 0 0 0 0 -0 -0 0 0 -0 -0 -0 0 0 -0 -0 -0 -1 -1 0 0 0 -0 -0 0 -0 nan
nan 0 0 -0 0 1 0 0 0 0 0 0 0 1 1 0 -0 -0 -0 -0 -0 0 0 0 -0 0 0 0 0 -0 -0 0 -0 0 0 0 -0 -0 -0 -0 -1 0 -0 -0 -0 -0 nan
nan 0 0 -0 0 1 1 0 0 0 0 0 0 1 2 1 -0 -0 -0 -0 -0 -0 -0 -0 0 0 0 -0 0 0 0 -0 -0 0 0 -0 -0 -1 -1 -1 -1 -2 0 -0 -1 -0 nan
nan -0 0 0 -0 0 1 0 0 0 0 0 0 0 1 1 0 -0 0 -0 -0 -0 -0 -0 0 -0 -0 0 -0 -0 0 -0 -0 0 0 -0 -1 -1 0 -0 -0 -1 -1 0 -0 0 nan
nan -0 -0 0 -0 0 0 0 0 0 0 0 0 0 0 1 0 -0 0 -0 -0 -0 -0 -0 0 -0 0 0 -0 -0 -0 -0 0 -0 -0 0 0 -0 -0 0 0 0 -0 -1 -0 -0 nan
nan -1 -0 0 -0 -0 1 1 0 0 0 0 0 0 0 0 -0 -0 -0 -0 -0 -0 -0 0 -0 -0 0 -0 -0 -0 -0 -0 0 0 0 0 -0 0 -0 -1 -0 0 0 -1 -1 -0 nan
nan -2 -1 -0 -0 -0 1 1 0 0 0 0 0 0 0 0 0 -0 -0 -0 0 0 -0 -0 -0 -0 0 -0 -0 0 -0 -0 -0 0 -0 0 0 0 0 0 -0 -0 -0 -0 -0 -0 nan
nan -3 -1 -0 -0 -0 0 1 0 0 0 0 0 0 0 0 -0 -0 0 0 0 -0 0 -0 0 -0 -0 -0 -0 -0 -0 0 0 -0 -0 0 -0 -0 -0 0 -0 -0 -0 -0 -0 -0 nan
nan -3 -3 -1 0 -0 0 0 0 0 0 0 0 0 0 -0 -0 -0 0 0 -0 -0 -0 -0 0 -0 -0 -0 0 0 -0 -0 -0 -0 0 0 -0 0 -0 0 0 0 -0 -0 -0 -0 nan
nan -1 -3 -2 -1 0 -0 0 1 0 0 0 0 0 0 -0 -0 -0 0 -0 -0 -0 -0 -0 -0 -0 0 0 -0 0 0 -0 -0 -0 -0 0 0 0 -0 -0 0 0 0 -0 -0 -0 nan
nan -1 -2 -3 -1 0 0 1 1 0 0 0 0 0 0 -0 -0 0 -0 -0 0 -0 -0 -0 -0 -0 0 -0 -0 -0 -0 -0 -0 -0 -0 -0 0 0 -0 -0 -0 0 0 0 -0 0 nan
nan -1 -2 -3 -2 -0 1 1 1 0 0 0 0 -0 0 0 0 0 -0 -0 -0 -0 0 -0 0 -0 -0 -0 -0 0 -0 0 -0 -0 -0 -1 -0 -0 0 -0 -0 -0 -0 -0 0 0 nan
nan -1 -1 -2 -1 -1 1 2 1 0 0 0 -0 -0 -0 0 0 -0 -0 -0 -0 0 -0 -0 -0 -0 -0 -0 -0 -0 -0 -0 -0 -0 -0 0 -0 -0 0 -0 0 0 0 -0 -0 -0 nan
nan -2 -2 -1 -3 -3 1 2 1 0 0 -0 -0 -0 0 0 -0 -0 -0 -0 -0 0 -0 -0 -0 -0 -0 -0 -0 -0 -0 0 -0 -0 0 -0 -0 0 0 0 -0 -0 -0 0 -0 0 nan
nan -2 -2 -2 -3 -1 0 2 0 0 0 -1 -0 -0 0 0 -0 -0 -0 -0 -0 0 -0 -0 -0 -0 -0 -0 -0 -0 -0 -0 0 0 0 0 -0 -0 0 -0 0 0 -0 -0 0 -0 nan
nan -2 -2 -3 -2 -1 1 2 0 -0 0 -0 -0 -0 -0 -0 -1 -0 -0 -0 -0 0 -0 0 0 -0 0 0 0 -0 -0 0 0 0 -0 -0 0 -0 0 0 -0 -0 -0 0 0 -0 nan
nan -1 -1 -2 -3 -1 1 1 0 -0 0 0 -0 -0 -0 -0 -1 -0 -0 -0 -0 -0 -0 0 0 -0 0 0 0 -0 -0 -0 0 0 0 -0 -0 0 -0 -0 -0 -0 0 0 0 -0 nan
nan -2 -2 -1 -3 -1 1 1 0 0 0 0 0 -0 -0 -0 -0 -0 -0 -0 -0 -0 -0 -0 -0 0 0 -0 -0 0 -0 -0 -0 0 0 0 0 -0 -0 0 -0 0 -0 -0 -0 -0 nan
nan -2 -3 -1 -2 -1 1 1 -0 -0 -0 0 -0 0 -0 0 0 -0 -0 -0 0 -0 0 0 0 0 0 -0 -0 -0 0 0 -0 -0 -0 0 -0 0 -0 0 0 0 -0 -0 -0 -0 nan
nan -2 -1 0 -1 -1 1 1 0 -0 0 -0 -0 0 -0 0 -0 -0 0 0 0 0 0 0 -0 0 -0 0 0 0 0 -0 -0 0 -0 -0 -0 -0 0 0 -0 -0 0 0 0 0 nan
nan -1 -1 -1 -2 -2 2 0 0 0 0 -0 0 0 -0 -0 0 0 0 0 -0 0 0 -0 -0 -0 0 -0 0 0 0 0 0 0 0 0 -0 -0 -0 -0 -0 0 0 0 -0 0 nan
nan -2 -0 -1 -1 -0 1 1 0 0 -0 0 0 0 0 -0 -0 0 0 1 0 -0 0 -0 -0 0 0 -0 0 0 0 -0 0 0 -0 -0 0 0 -0 -0 -0 0 0 0 -0 0 nan
nan -3 -2 0 -0 -0 1 1 0 0 -0 0 0 1 -0 -1 0 0 0 0 0 0 -0 -0 -0 0 0 0 0 0 -0 -0 -0 -0 0 0 0 0 -0 -0 -0 0 0 -0 -0 -0 nan
nan -1 -1 1 0 0 1 1 0 0 0 1 0 1 -0 -1 -0 0 0 0 0 -0 0 0 0 0 -0 0 0 -0 -0 0 0 -0 -0 -0 -0 -0 -0 0 -0 0 -0 -0 -0 -0 nan
nan nan nan nan nan nan nan nan nan nan nan nan nan nan nan nan nan nan nan nan nan nan nan nan nan nan nan nan nan nan nan nan nan nan nan nan nan nan nan nan nan nan nan nan nan nan nan
Wind_Speed
30 29 24 23 24 24 23 23 23 23 24 21 20 19 21 21 18 13 16 16 13 12 12 14 15 14 13 7 4 8 9 9 4 11 15 11 16 16 14 17 16 7 11 19 1 30 23
27 30 32 24 26 24 24 23 22 23 23 22 19 19 21 21 20 17 12 15 14 13 11 13 12 8 7 9 4 8 9 6 1 5 16 5 9 19 15 17 16 10 12 20 2 5 6
29 29 32 29 25 27 24 22 22 22 23 23 21 21 21 21 20 21 13 12 13 13 11 11 9 6 10 10 4 9 7 7 3 5 20 6 4 3 12 15 17 13 4 6 5 3 5
28 29 28 31 26 27 23 23 22 22 23 23 22 21 19 21 20 20 14 12 10 11 10 10 9 4 7 8 8 4 5 8 3 5 18 16 8 7 7 10 23 12 9 8 10 10 5
29 28 26 26 28 24 25 23 22 22 23 24 25 22 20 21 20 18 13 9 7 8 9 9 6 6 7 4 2 3 5 5 4 2 8 7 6 6 14 13 8 8 5 3 6 7 3
28 29 25 23 27 22 25 23 21 21 22 24 25 23 22 20 17 17 8 6 6 8 8 5 9 8 8 7 12 18 4 2 1 3 3 2 3 4 6 12 11 5 6 5 8 7 4
27 30 28 27 30 25 27 22 21 20 21 23 25 24 23 18 14 12 3 3 5 2 4 7 10 12 11 13 1 8 8 5 3 3 2 3 2 6 13 12 10 17 6 12 13 10 7
31 28 30 32 34 27 28 23 20 19 20 22 25 24 21 17 12 8 1 2 2 3 7 5 7 6 5 9 4 6 7 6 3 2 7 2 7 10 11 12 4 12 18 9 7 10 10
33 31 29 32 31 32 25 24 20 18 19 21 23 21 20 12 6 3 4 3 4 3 5 2 2 3 7 6 5 7 5 3 2 5 2 4 6 6 4 4 9 5 7 10 7 4 14
36 35 32 33 34 34 31 24 19 18 17 20 21 19 17 5 3 0 1 5 2 1 2 3 1 2 2 4 4 2 8 3 3 6 5 5 1 7 4 10 5 8 5 11 15 9 3
41 37 34 33 33 31 36 25 18 17 16 19 18 16 12 5 3 1 5 2 1 2 1 2 3 2 2 5 9 2 4 2 6 7 1 2 1 6 10 4 5 5 7 7 7 5 5
37 40 32 35 34 32 40 27 17 16 14 17 14 11 6 2 2 5 2 3 5 2 1 1 1 2 4 7 4 5 2 5 11 7 9 4 6 5 6 8 7 4 9 9 5 3 2
42 40 36 30 35 31 40 24 17 16 12 14 11 4 4 4 4 3 4 3 1 2 3 1 3 2 5 4 4 3 6 4 2 4 5 6 4 3 3 7 2 5 8 3 2 1 4
38 42 38 31 35 31 38 27 18 15 10 11 6 5 4 3 5 4 5 1 1 4 4 2 5 4 2 2 4 2 6 4 4 4 3 2 1 3 4 3 2 4 6 4 3 4 5
39 39 39 33 35 32 35 30 19 14 9 8 5 7 5 6 5 5 2 2 3 3 5 8 9 1 2 1 1 2 2 5 5 3 2 4 3 2 3 4 4 4 2 1 2 1 3
36 39 40 35 36 30 31 31 20 14 8 6 10 9 7 8 5 4 1 3 2 3 1 10 2 5 4 6 3 0 4 2 6 5 3 5 5 1 2 4 2 2 3 2 3 1 2
39 35 42 31 33 31 27 34 22 14 10 12 15 7 5 8 4 2 2 2 2 5 2 1 4 5 5 7 5 3 4 2 1 5 2 3 5 3 4 3 6 2 2 2 2 1 1
45 37 40 35 37 34 29 36 22 16 15 19 13 3 8 9 3 3 3 3 1 9 5 2 3 3 5 7 8 5 6 1 7 9 3 4 4 4 2 3 3 5 3 6 3 2 2
46 42 32 37 30 34 27 34 23 19 19 24 11 6 11 12 3 4 4 3 4 6 6 3 3 4 4 6 3 7 5 1 4 6 1 2 2 3 2 2 4 5 6 5 3 3 2
46 40 33 37 37 30 27 35 23 21 23 20 10 4 4 10 8 4 5 6 6 3 2 1 1 2 3 4 0 6 5 2 4 2 5 5 3 1 1 1 3 5 9 8 5 3 4
48 39 30 35 41 27 29 32 24 23 26 18 9 6 8 5 8 9 5 6 9 5 4 6 4 6 4 3 4 5 5 8 3 4 2 4 2 3 2 4 4 1 6 9 9 8 5
51 33 33 40 48 26 28 31 25 26 30 18 8 5 11 6 5 12 8 6 9 6 6 6 3 7 3 3 5 5 11 5 4 4 4 5 2 3 3 1 2 2 6 7 9 10 10
50 39 33 19 49 22 33 31 28 31 34 12 12 13 7 9 6 7 8 7 8 9 1 5 2 3 3 6 4 6 7 1 6 7 6 5 4 2 1 1 3 5 8 11 6 6 6
48 41 24 6 37 32 36 30 29 31 35 14 21 16 5 3 6 8 3 6 8 4 4 5 1 2 2 2 3 2 4 4 8 3 4 3 3 3 1 2 1 4 4 5 3 5 6
45 43 31 25 20 39 36 30 29 28 36 22 18 13 6 4 7 4 8 6 10 6 7 8 6 3 4 3 3 5 2 2 4 3 2 1 3 1 2 2 3 4 1 2 3 4 2
43 40 44 31 18 43 35 31 28 27 34 27 15 15 5 8 3 2 8 13 5 5 4 4 3 4 2 2 1 3 4 4 5 4 2 3 3 1 2 1 3 4 5 4 1 2 6
42 38 18 31 37 41 35 33 30 26 27 27 17 17 7 8 3 5 3 2 1 4 3 6 3 1 1 2 2 3 2 3 5 6 5 2 2 3 4 2 5 7 7 3 1 2 9
42 34 13 28 40 38 34 34 26 22 25 24 19 19 13 9 9 5 6 5 2 3 3 5 4 1 2 2 2 1 2 3 2 4 5 6 5 4 3 3 5 5 4 1 2 11 9
36 28 4 20 32 34 35 31 25 23 24 22 24 21 15 10 9 12 11 9 8 7 7 4 4 4 2 1 1 2 0 2 2 3 3 2 1 2 2 3 4 9 14 10 7 5 7
Wind_Direction
319 309 313 320 320 327 331 336 333 331 332 334 333 330 319 321 326 291 308 316 315 312 314 319 317 322 335 318 337 358 357 350 200 234 203 226 206 206 225 195 181 205 255 247 119 160 160
318 315 301 314 316 317 325 328 330 324 327 331 326 324 318 318 318 312 286 306 310 309 313 314 324 314 320 291 336 354 356 333 249 250 196 264 211 218 222 216 181 142 265 240 264 69 107
315 317 309 294 316 313 316 322 325 321 323 327 327 325 315 314 315 312 280 281 300 303 305 305 320 345 291 266 321 329 345 312 291 241 216 247 264 238 236 220 173 192 299 219 178 53 4
311 320 313 297 308 318 307 321 320 319 319 322 324 320 313 310 313 309 299 280 293 301 304 305 316 325 265 265 290 330 327 292 317 290 211 283 244 249 235 202 164 142 199 232 130 189 21
306 312 319 290 300 305 300 317 318 315 316 319 324 325 316 309 309 306 296 283 291 293 314 314 338 259 284 265 286 296 295 279 292 356 277 306 217 243 221 203 157 173 172 232 93 126 105
302 306 310 297 300 299 297 307 314 311 312 317 323 324 316 315 317 309 299 296 309 294 319 316 271 291 245 280 262 265 211 206 65 28 163 85 186 249 210 177 180 133 217 174 234 158 118
293 298 302 299 292 286 295 300 310 307 308 314 321 324 319 317 314 310 293 1 328 323 243 249 310 304 341 8 56 153 150 154 119 54 79 305 187 220 176 193 166 146 142 157 220 183 137
285 286 294 295 292 284 295 291 307 303 305 313 320 323 319 318 318 313 195 37 302 315 305 253 304 347 10 64 86 139 158 177 160 73 134 139 209 237 168 201 238 190 170 184 10 163 190
280 282 285 289 292 277 286 284 302 299 303 312 318 322 321 317 337 336 168 274 268 326 264 161 358 53 33 74 111 144 182 198 112 140 203 129 142 203 322 185 192 153 186 133 141 209 219
282 277 277 283 288 281 280 275 293 295 300 310 318 323 318 327 26 273 295 249 244 352 285 57 126 90 9 112 52 144 179 151 66 121 59 66 346 183 161 224 231 143 153 143 159 164 183
282 275 273 278 282 282 269 268 283 289 297 307 317 322 307 224 182 309 242 219 132 68 226 17 76 76 13 90 143 18 152 226 133 64 26 69 68 200 171 130 6 69 53 81 121 199 18
301 276 270 274 277 276 268 260 274 281 292 304 315 315 283 180 188 250 174 134 76 253 145 317 101 153 130 122 101 131 168 82 131 58 16 73 41 18 331 36 62 103 84 66 35 5 354
292 292 276 260 267 272 267 251 265 270 283 301 309 291 197 147 181 245 133 96 196 300 256 212 152 128 74 110 88 106 147 144 134 90 3 55 16 106 308 76 72 152 133 88 59 28 214
295 290 293 258 258 264 265 244 250 258 272 292 293 182 156 170 149 147 122 224 192 166 193 163 132 104 75 27 73 50 147 106 51 62 113 83 132 52 327 1 169 195 203 131 189 181 172
296 295 291 276 249 257 262 237 237 242 256 268 199 163 130 159 155 134 232 187 139 187 158 162 152 116 85 296 92 27 313 139 147 222 131 135 92 148 332 342 337 239 27 27 348 219 77
299 292 292 289 246 249 260 232 226 227 232 221 163 137 174 173 182 125 249 289 190 331 117 171 230 184 149 167 164 345 200 105 129 164 210 137 106 284 103 293 267 305 149 74 4 68 233
321 310 288 285 245 245 258 230 216 211 206 175 146 148 211 176 188 200 201 239 222 167 298 276 245 150 144 151 164 216 180 8 178 163 340 273 113 133 110 233 183 172 123 255 165 178 186
321 315 297 282 300 240 248 223 207 196 186 167 154 140 187 173 219 225 221 178 283 158 203 286 297 191 171 147 179 175 177 347 217 147 208 73 92 155 149 21 47 331 229 207 132 235 253
313 314 295 320 224 231 240 216 199 194 190 162 155 123 171 177 204 206 262 221 219 163 197 191 217 320 325 152 130 116 128 334 141 177 104 196 134 109 35 303 191 219 214 234 246 30 203
313 312 285 312 230 226 243 214 192 191 182 159 143 136 153 201 257 263 220 196 177 165 270 189 52 272 210 135 355 142 128 177 169 122 45 17 213 59 107 62 161 189 205 214 173 131 208
321 311 287 311 227 228 237 204 184 188 178 169 181 165 180 177 216 210 248 214 182 158 234 188 194 251 212 153 146 125 111 139 172 115 74 12 321 83 261 16 44 352 196 220 220 212 198
314 305 305 293 218 233 236 196 181 187 179 184 167 149 172 184 165 185 199 222 186 150 166 176 265 184 181 63 27 158 143 172 180 155 172 186 227 81 314 118 319 267 266 258 242 234 237
314 315 325 255 208 233 217 190 179 189 185 183 191 159 163 145 167 182 189 195 193 135 70 53 138 152 185 95 10 354 45 30 133 155 196 167 131 138 220 102 260 281 224 220 228 235 230
314 316 316 64 220 241 210 182 186 192 189 185 183 165 183 162 189 203 175 137 143 128 156 108 288 302 105 125 99 120 89 79 114 45 190 174 138 124 184 290 259 224 61 26 199 225 232
315 314 301 285 303 234 205 181 189 190 191 194 177 165 177 129 175 90 147 142 109 131 96 113 49 83 147 198 151 133 149 164 143 146 210 199 138 198 161 208 270 161 206 140 176 190 108
313 308 298 256 218 215 189 179 186 190 197 198 186 180 143 123 64 153 171 155 160 144 137 106 79 87 141 240 229 174 191 196 157 134 324 308 276 256 190 278 279 131 124 92 97 153 68
311 307 279 229 199 211 188 179 183 192 198 201 199 184 136 104 100 76 113 177 61 116 102 122 132 86 76 161 211 205 178 22 161 180 160 168 243 213 233 240 297 145 139 133 132 189 55
306 305 321 206 202 199 181 176 177 192 194 192 188 175 161 106 79 101 101 111 109 44 133 137 124 93 31 202 196 266 181 206 60 104 161 171 172 190 195 214 265 100 89 26 49 62 47
298 310 52 195 195 185 176 171 175 193 188 179 168 171 161 114 121 116 107 118 126 112 116 74 94 54 102 108 262 244 250 103 247 174 354 230 158 202 212 181 96 70 105 97 75 43 358
Height
1544 1541 1539 1537 1534 1531 1529 1524 1523 1519 1515 1511 1508 1506 1502 1499 1495 1493 1491 1488 1486 1484 1483 1481 1480 1478 1476 1476 1474 1470 1468 1466 1465 1467 1470 1471 1472 1473 1474 1473 1482 1484 1482 1484 1483 1477 1483
1541 1539 1536 1534 1532 1529 1527 1522 1520 1518 1513 1508 1506 1502 1500 1496 1493 1490 1488 1486 1484 1482 1481 1480 1477 1476 1477 1476 1473 1470 1469 1468 1466 1467 1469 1471 1472 1472 1473 1472 1478 1481 1490 1483 1473 1474 1484
1537 1534 1532 1530 1529 1527 1523 1521 1516 1513 1511 1506 1502 1499 1496 1493 1490 1487 1484 1483 1482 1480 1479 1478 1476 1475 1476 1474 1471 1469 1470 1467 1467 1467 1469 1471 1472 1472 1468 1468 1472 1480 1490 1491 1484 1484 1490
1534 1530 1526 1525 1526 1522 1520 1518 1514 1510 1508 1504 1499 1496 1492 1490 1487 1484 1481 1479 1479 1478 1476 1475 1475 1475 1473 1469 1470 1470 1469 1469 1468 1466 1468 1470 1470 1471 1471 1464 1476 1487 1500 1490 1486 1492 1492
1529 1526 1522 1521 1521 1518 1516 1514 1511 1507 1504 1501 1497 1493 1488 1486 1484 1481 1478 1477 1476 1476 1475 1473 1473 1473 1471 1468 1469 1468 1468 1469 1467 1467 1465 1467 1469 1469 1464 1469 1472 1486 1495 1484 1484 1492 1498
1524 1521 1517 1517 1516 1513 1512 1510 1507 1503 1502 1497 1494 1490 1485 1483 1480 1478 1476 1476 1475 1474 1474 1472 1472 1475 1469 1466 1463 1462 1466 1467 1467 1465 1469 1472 1472 1470 1460 1463 1475 1485 1480 1488 1492 1497 1500
1516 1516 1513 1512 1510 1507 1507 1506 1503 1500 1498 1494 1490 1487 1483 1479 1477 1476 1475 1475 1477 1476 1473 1471 1470 1468 1467 1465 1462 1461 1464 1468 1469 1471 1472 1473 1471 1464 1457 1459 1462 1483 1485 1487 1487 1487 1494
1511 1508 1507 1506 1504 1503 1502 1501 1498 1496 1494 1491 1487 1484 1480 1477 1475 1474 1475 1476 1476 1477 1473 1470 1469 1468 1467 1467 1466 1464 1466 1469 1470 1470 1473 1472 1470 1460 1457 1459 1460 1462 1478 1486 1486 1486 1493
1503 1503 1500 1500 1498 1497 1497 1496 1494 1492 1490 1487 1484 1480 1478 1475 1473 1474 1474 1477 1475 1476 1475 1469 1468 1468 1468 1469 1466 1469 1468 1468 1469 1471 1470 1468 1468 1465 1463 1459 1465 1465 1470 1483 1490 1495 1489
1494 1494 1494 1493 1492 1491 1492 1490 1490 1488 1485 1483 1480 1478 1476 1474 1476 1475 1475 1474 1475 1475 1476 1469 1467 1469 1470 1469 1470 1470 1469 1469 1471 1470 1468 1469 1469 1466 1471 1465 1459 1468 1462 1468 1476 1486 1492
1485 1485 1487 1485 1485 1484 1485 1484 1484 1483 1481 1479 1477 1475 1474 1472 1474 1475 1476 1474 1474 1476 1464 1469 1467 1468 1467 1469 1472 1473 1470 1469 1470 1469 1468 1476 1470 1470 1467 1462 1461 1469 1466 1469 1477 1482 1483
1477 1476 1477 1477 1477 1475 1477 1478 1478 1478 1477 1475 1474 1472 1472 1472 1473 1474 1474 1474 1475 1479 1472 1471 1466 1467 1468 1468 1469 1471 1471 1471 1471 1469 1473 1476 1476 1477 1480 1469 1467 1471 1474 1480 1482 1486 1509
1470 1466 1464 1465 1467 1469 1470 1471 1472 1473 1472 1472 1470 1469 1470 1471 1474 1473 1474 1476 1476 1467 1471 1469 1463 1463 1465 1470 1470 1470 1469 1471 1471 1480 1484 1481 1480 1480 1479 1475 1474 1476 1483 1505 1513 1520 1517
1461 1459 1454 1454 1457 1460 1462 1464 1466 1468 1467 1468 1468 1468 1469 1471 1472 1473 1474 1476 1469 1464 1462 1461 1460 1464 1465 1464 1468 1470 1467 1470 1473 1474 1481 1485 1488 1483 1481 1479 1481 1481 1482 1499 1502 1513 1508
1454 1450 1446 1444 1446 1451 1453 1455 1459 1462 1463 1464 1465 1466 1468 1470 1471 1473 1475 1469 1463 1460 1457 1459 1462 1466 1465 1464 1470 1471 1469 1466 1472 1474 1475 1485 1488 1487 1486 1485 1485 1484 1493 1486 1493 1484 1507
1445 1441 1437 1436 1437 1441 1446 1448 1453 1455 1459 1460 1462 1466 1468 1470 1471 1472 1473 1463 1462 1458 1456 1458 1460 1459 1460 1465 1467 1473 1469 1466 1468 1471 1472 1473 1489 1488 1488 1486 1484 1485 1482 1497 1502 1510 1495
1435 1432 1429 1429 1427 1432 1438 1441 1446 1449 1454 1457 1461 1465 1467 1469 1471 1472 1468 1462 1458 1460 1459 1459 1455 1454 1455 1464 1465 1471 1468 1471 1466 1470 1471 1470 1479 1492 1489 1488 1485 1488 1489 1488 1490 1497 1510
1430 1425 1421 1418 1422 1423 1429 1433 1439 1443 1449 1454 1458 1463 1465 1468 1471 1466 1463 1459 1459 1459 1461 1460 1459 1457 1454 1458 1463 1462 1469 1470 1468 1470 1473 1472 1480 1489 1488 1486 1486 1486 1485 1487 1501 1504 1502
1425 1419 1413 1406 1401 1413 1420 1426 1433 1438 1443 1448 1455 1459 1464 1466 1464 1462 1460 1458 1458 1458 1459 1460 1457 1456 1453 1455 1461 1463 1467 1470 1469 1471 1471 1473 1483 1493 1497 1492 1487 1489 1485 1483 1484 1493 1502
1418 1410 1405 1399 1399 1406 1413 1420 1426 1433 1440 1445 1450 1457 1463 1464 1461 1459 1455 1453 1456 1458 1457 1459 1457 1457 1455 1456 1456 1463 1468 1471 1472 1472 1474 1474 1474 1479 1485 1478 1477 1486 1482 1483 1489 1508 1496
1408 1402 1399 1398 1399 1400 1407 1414 1420 1429 1436 1441 1443 1446 1449 1456 1457 1457 1453 1448 1451 1456 1458 1458 1458 1457 1456 1460 1459 1461 1467 1472 1474 1474 1475 1476 1481 1486 1478 1478 1478 1478 1480 1481 1487 1487 1496
1401 1395 1394 1390 1391 1395 1401 1408 1414 1425 1431 1436 1437 1439 1445 1441 1446 1453 1452 1449 1448 1451 1454 1456 1457 1455 1455 1461 1462 1462 1465 1469 1471 1475 1476 1478 1490 1485 1491 1480 1480 1483 1481 1479 1478 1479 1482
1402 1391 1386 1377 1384 1389 1396 1403 1409 1419 1425 1429 1431 1434 1438 1441 1445 1449 1447 1445 1446 1450 1455 1453 1455 1456 1458 1464 1464 1464 1464 1464 1465 1472 1475 1476 1483 1491 1488 1482 1483 1490 1477 1476 1476 1474 1476
1395 1388 1380 1378 1389 1387 1391 1398 1406 1413 1420 1423 1426 1431 1435 1440 1443 1444 1440 1445 1447 1451 1453 1456 1458 1457 1465 1463 1464 1466 1466 1466 1467 1469 1471 1476 1479 1486 1492 1490 1503 1473 1469 1469 1470 1470 1472
1388 1380 1379 1383 1390 1389 1389 1396 1403 1411 1417 1420 1423 1427 1430 1434 1439 1442 1444 1446 1450 1453 1455 1458 1461 1463 1463 1464 1465 1468 1472 1471 1470 1471 1472 1473 1482 1487 1491 1489 1472 1473 1472 1472 1473 1473 1470
1380 1376 1372 1370 1371 1383 1388 1393 1401 1409 1413 1419 1422 1426 1428 1432 1441 1441 1445 1447 1450 1452 1457 1461 1463 1462 1464 1463 1463 1465 1473 1464 1473 1476 1475 1474 1475 1483 1483 1489 1476 1471 1470 1470 1471 1479 1473
1377 1373 1362 1366 1367 1378 1387 1392 1399 1406 1411 1416 1421 1425 1428 1433 1441 1442 1445 1448 1449 1449 1454 1459 1462 1464 1464 1464 1467 1466 1469 1462 1471 1471 1478 1479 1479 1486 1484 1482 1476 1468 1469 1470 1479 1485 1475
1372 1367 1362 1364 1365 1377 1386 1391 1397 1404 1410 1415 1419 1424 1426 1433 1444 1445 1446 1447 1450 1451 1453 1461 1464 1466 1467 1466 1465 1464 1464 1466 1464 1465 1470 1473 1482 1480 1480 1484 1488 1470 1471 1474 1478 1476 1477
1369 1364 1367 1376 1375 1378 1385 1390 1397 1403 1409 1414 1417 1421 1425 1431 1444 1447 1448 1450 1451 1453 1456 1460 1464 1465 1468 1468 1467 1465 1463 1465 1464 1470 1466 1473 1469 1474 1471 1474 1470 1470 1471 1474 1475 1477 1477